CZ-6A DEB, 56645

Orbit data source: Space-Track

CZ-6A DEB, 56645 is space debris in SSO originally from a launch on Fri, 11 Nov 2022 UTC launched from the Taiyaun Space Center, China (TSC). Debris objects in space refer to the collection of defunct objects orbiting the Earth. Examples of debris include non-operational satellites, rocket bodies, and fragments generated from explosions, collisions, or faulty payload assembly.

Loading next visibility...
Identifier
56645, 2022-151AFV
Orbit
SSO
Country
Flag of CNCN / PRC
Related business
Manufacturer
SAST
Mission
Spacecraft
Bus & Motor
Unknown
Mass
Unknown
Launch date (UTC)
2022-11-11 (3 years ago)
Launch vehicle
Unknown
Launch site
Taiyaun Space Center, China (TSC)
Object type
Payload
Rocket body
Debris
Shape & HBR
Unknown shape, 0.1 m
Radar Cross Section
Small (<0.1 m²)

Expand to show TLE details & history
Last TLE update: 19 hours ago

TLE from 19 hours ago
0 CZ-6A DEB
1 56645U 22151AFV 26129.77888800  .00001313  00000-0  64795-3 0  9995
2 56645  98.8011 136.9858 0043056  91.9210 268.6897 14.18707060157491
Epoch: 2026-05-09T18:41Z
TLE epoch observation values (Epoch: 2026-05-09T18:41:35.923Z)
Latitude
-0.00004°
Longitude
-11.0053°
Altitude
833.482 km
Speed
7.436 km/s
True Right ascension
09h 07m 56s
True Declination
0° 00' 00"
Sunlit
Object was in daylight at epoch
Visualization orbit readout
Latitude
Unknown
Longitude
Unknown
Altitude
Unknown
Speed
Unknown
Apparent Right ascension
Unknown
Apparent Declination
Unknown
Sunlit
N/A
Visualization observer readout
Local Sidereal Time
21:27:37
Azimuth
Unknown
Elevation
Unknown
Doppler factor
Unknown
Orbital elements
Apogee altitude
857.915 km
Perigee altitude
795.871 km
Semi-major axis
7,205.03 km
Eccentricity
0.00431
Inclination
98.8011°
RAAN
136.9858°
Arg. of periapsis
91.921°
True anomaly
268.19651°
Mean anomaly
268.6897°
Eccentric anomaly
268.4431°
Mean motion
3.54886 °/min
Orbital period
101.44 mins
BSTAR
0.00064795
Loading maneuver chart data...
Computing Atmospheric mass density...
Loading historical data...
Loading historical data...
Loading historical data...
Loading historical data...
Loading historical data...
Loading historical data...
Loading historical data...

Documentation

Showing up to 5 results
|